Location: Lachepaillet
(43.4918°N, 1.4874°W)
Time: 07:19:36
(UTC+00:00)

Daily predictions for brighter satellites

Satellite Brightness Start Highest point End
(mag) Time Altitude Azimuth Time Altitude Azimuth Time Altitude Azimuth
Okean O Rocket 3.2 19:53:25 10° ESE 19:56:32 20° ENE 19:59:39 10° NNE
Cosmos 2333 Rocket 3.8 19:54:45 10° N 19:59:10 22° NE 20:03:32 10° E
NOSS 3-3 (A) 3.6 19:56:45 10° SSW 20:01:43 67° ESE 20:07:34 10° NE
Okean 1 Rocket 3.7 19:57:51 10° SSW 20:02:11 60° W 20:06:35 10° N
Cosmos 2100 Rocket 4.3 19:58:20 10° SSW 20:04:34 76° W 20:10:56 10° N
SL-24 R/B 4.4 20:01:58 10° N 20:06:20 74° WNW 20:10:37 10° SSW
Cosmos 1452 Rocket 4.1 20:03:14 10° SSW 20:08:24 62° WNW 20:13:36 10° NNE
CZ-4B DEB 4.2 20:03:17 10° SSE 20:08:47 79° ENE 20:14:20 10° NNW
Cosmos 2360 Rocket 4.1 20:05:25 10° N 20:08:56 16° NE 20:12:28 10° E
Milstar 3 4.2 20:04:30 10° SW 20:09:20 21° S 20:14:52 10° SE
SL-24 R/B 4.3 20:06:35 10° NNE 20:10:58 87° E 20:15:55 10° SSW
Helios 1A Rocket 2.2 20:08:06 10° NNE 20:11:13 58° ESE 20:14:18 10° S
CZ-4B R/B 3.4 20:06:27 10° SSE 20:11:59 61° ENE 20:17:31 10° N
Cosmos 2233 Rocket 4.1 20:07:15 10° SSE 20:13:14 54° E 20:19:12 10° NNE
Cosmos 1302 Rocket 4.0 20:10:36 10° SSW 20:15:46 86° WNW 20:21:00 10° NNE
Okean-O 3.6 20:14:53 11° SE 20:18:32 32° ENE 20:22:25 10° N
Cosmos 909 Rocket 4.0 20:12:35 10° SSW 20:18:57 74° ESE 20:25:19 10° NE
Cosmos 2219 Rocket 4.3 20:18:43 10° NNE 20:21:28 14° NE 20:24:14 10° ENE
SPOT 5 4.3 20:23:11 10° SSW 20:27:03 32° W 20:31:03 10° NNW
GEOS 3 Rocket 3.8 20:22:54 11° SE 20:28:01 82° SW 20:33:25 10° NW
ADEOS 3.6 20:25:26 10° SSE 20:30:38 79° ENE 20:35:52 10° NNW
Gbstr 26 Del rocket 4.2 20:27:07 10° WNW 20:31:52 37° SW 20:35:24 13° SSE
Cosmos 1725 Rocket 4.3 20:26:57 10° SSW 20:33:12 74° W 20:39:27 10° N
NOSS 3-3 (C) 3.7 20:29:08 10° SW 20:34:14 87° WNW 20:40:20 10° NE
Meteor 1-31 Rocket 4.1 20:31:24 10° SSW 20:34:34 33° W 20:37:44 10° NNW
Longmarch 3A Rocket 4.2 20:35:46 10° SW 20:37:58 12° SSW 20:39:32 10° S
Cosmos 2322 Rocket 3.5 20:37:06 10° N 20:41:58 28° NE 20:45:49 14° ESE
Cosmos 2082 Rocket 3.0 20:38:23 10° SW 20:43:58 55° WNW 20:49:36 10° NNE
Cosmos 2237 4.3 20:41:00 10° NNW 20:46:46 80° WSW 20:51:30 16° SSE
Cosmos 2016 Rocket 4.5 20:40:53 10° SSW 20:47:04 63° W 20:53:12 10° N
Tsikada Rocket 4.0 20:41:09 10° N 20:47:21 90° ESE 20:53:27 10° S
DELTA 2 R/B (1) 3.7 20:44:05 10° W 20:49:33 58° S 20:53:40 18° ESE
CZ-4B R/B 3.8 20:49:58 20° E 20:51:09 25° ENE 20:54:02 10° NNE
Cosmos 2369 4.0 20:45:29 10° NNW 20:51:10 65° WSW 20:56:02 14° S
YAOGAN 11 4.1 20:49:44 10° NNE 20:54:10 69° ESE 20:58:37 10° S
Cosmos 2098 Rocket 4.1 20:53:25 22° SE 20:55:20 29° E 20:59:03 10° NNE
Cosmos 2151 3.2 20:53:04 10° N 20:57:04 50° ENE 20:59:05 26° SE
Ariane Rocket 3.8 20:59:02 22° ESE 21:01:41 37° ENE 21:06:18 10° N
Cosmos 1626 Rocket 3.5 20:58:32 10° N 21:02:57 84° E 21:05:43 22° S
Spot 2 Rocket 3.6 21:03:00 17° S 21:06:54 75° WSW 21:11:57 10° NNW
Cosmos 2278 3.9 21:03:47 10° NNW 21:09:26 60° ENE 21:12:37 26° SE
ERS-1 Rocket 4.5 21:05:32 10° SSW 21:10:00 33° W 21:14:30 10° NNW
SPOT 3 Rocket 3.7 21:09:24 26° SE 21:12:12 59° ENE 21:17:16 10° N
Cosmos 1763 Rocket 4.3 21:10:53 26° SE 21:12:23 31° E 21:16:58 10° NE
SL-16 R/B 2.2 21:07:48 10° NNW 21:13:31 81° ENE 21:16:43 27° SSE
USA 186 1.7 21:12:57 39° SSW 21:13:41 58° WSW 21:16:26 10° NNW
USA 290 3.1 21:18:07 32° ENE 21:18:07 32° ENE 21:20:24 10° NE
CZ-4 R/B 4.0 21:16:35 10° WSW 21:17:51 11° W 21:19:06 10° WNW
Cosmos 1606 Rocket 4.2 21:17:14 32° ESE 21:18:14 37° E 21:22:13 10° NNE
Cosmos 1513 Rocket 4.4 21:15:01 16° S 21:20:01 75° E 21:26:09 10° N
Cosmos 1933 3.2 21:19:51 24° SSW 21:22:01 80° W 21:25:51 10° N
Cosmos 1464 Rocket 4.1 21:18:41 25° SSE 21:22:04 53° E 21:28:04 10° NNE
Cosmos 1461 4.1 21:20:36 10° WSW 21:24:03 37° NW 21:27:31 10° NNE
ISS -1.2 21:22:19 10° NW 21:24:52 20° N 21:27:26 10° NE
CZ-4B R/B 3.4 21:23:15 33° SE 21:25:15 62° ENE 21:30:02 10° N
Okean 1 3.9 21:25:54 32° E 21:25:54 32° E 21:28:56 10° NNE
Cosmos 1726 Rocket 4.3 21:25:49 30° E 21:25:59 30° E 21:29:31 10° NNE
BREEZE-M DEB (TANK) 3.7 21:24:15 10° WNW 21:26:46 23° NNW 21:28:12 13° NE
COSMOS 2406 4.1 21:22:31 10° SW 21:28:07 52° WNW 21:33:43 10° NNE
Terra 3.8 21:25:41 10° SW 21:29:21 23° W 21:33:03 10° NW
Okean O Rocket 2.6 21:29:45 19° SSW 21:32:26 40° W 21:36:29 10° NNW
Cosmos-2242 4.4 21:37:47 22° E 21:37:47 22° E 21:40:37 10° NE
Cosmos 1437 Rocket 3.8 21:37:04 16° SW 21:39:33 37° WNW 21:42:55 10° N
Cosmos 1072 Rocket 4.4 21:36:50 25° S 21:40:45 81° E 21:47:07 10° N
Cosmos 1777 Rocket 3.9 21:36:17 10° NNW 21:41:32 75° ENE 21:43:21 41° SE
Cosmos 2333 Rocket 2.4 21:38:17 10° NNW 21:43:57 67° WSW 21:46:30 33° S
Cosmos 1833 4.1 21:44:12 31° S 21:46:55 64° ESE 21:52:30 10° NNE
Okean 1-7 Rocket 3.5 21:44:45 10° N 21:49:16 81° E 21:50:19 52° SSE
Cosmos 1503 Rocket 4.0 21:46:25 10° NNW 21:51:36 70° ENE 21:53:04 46° SE
CZ-2C R/B 2.9 21:52:44 45° N 21:52:44 45° N 21:54:47 10° NNW
Cosmos 2360 Rocket 2.1 21:48:04 10° NNW 21:53:47 86° ENE 21:55:44 43° SSE
Okean-O 4.4 21:52:12 15° SW 21:54:48 25° W 21:58:25 10° NW
Cosmos 2034 Rocket 4.0 21:58:35 38° SSE 22:01:10 71° E 22:07:30 10° NNE
Cosmos 1486 Rocket 4.2 21:57:17 10° NNW 22:02:30 64° WSW 22:04:10 42° SSW
Cosmos 2333 4.1 21:58:11 10° NNW 22:03:57 87° ENE 22:05:42 47° SSE
Cosmos 2219 Rocket 2.2 22:00:50 10° NNW 22:06:30 69° ENE 22:08:05 47° SE
Cosmos 1354 Rocket 4.1 22:01:25 10° NNW 22:06:38 65° ENE 22:07:46 50° ESE
Cosmos 540 Rocket 3.3 22:07:44 44° SSW 22:09:26 88° ESE 22:14:37 10° NNE
Cosmos 1805 4.0 22:06:35 10° NNW 22:09:31 35° W 22:09:31 35° W
Cosmos 1825 Rocket 3.7 22:08:54 10° NNW 22:13:14 67° W 22:13:51 58° SW
Nadezhda 4 Rocket 4.1 22:11:32 10° NNW 22:17:36 66° W 22:20:00 38° SSW
Helios 1A 3.6 22:15:09 10° NNE 22:18:07 41° ENE 22:18:07 41° ENE
Cosmos 1953 Rocket 3.3 22:15:44 10° N 22:20:05 82° E 22:20:10 81° ESE
RESURS DK-1 4.1 22:17:18 10° N 22:20:25 21° NE 22:20:45 21° ENE
Cosmos 1707 4.3 22:23:33 21° NNE 22:23:33 21° NNE 22:24:39 10° N
Aureole 1 Rocket 4.2 22:16:34 10° NNW 22:22:30 62° ENE 22:24:34 43° SE
Cosmos 1634 Rocket 4.1 22:22:33 49° SE 22:23:52 59° E 22:29:57 10° NNE
Cosmos 2322 Rocket 2.7 22:20:46 10° NW 22:26:12 49° WSW 22:27:37 40° SSW
Cosmos 2058 Rocket 3.0 22:30:59 74° ENE 22:30:59 74° ENE 22:35:05 10° N
Cosmos 468 Rocket 3.9 22:30:14 66° SSE 22:30:51 76° ESE 22:36:07 10° NNE
Geosat 3.8 22:30:01 10° NNE 22:35:02 82° ESE 22:35:38 69° S
DELTA 2 R/B (1) 4.5 22:30:24 10° W 22:34:20 33° SW 22:34:20 33° SW
BREEZE-M DEB 4.1 22:31:00 10° WSW 22:35:34 89° N 22:46:18 10° ENE
Cosmos 1076 Rocket 4.0 22:32:43 10° NNW 22:36:49 49° W 22:36:55 49° W
Cosmos 2026 Rocket 4.0 22:33:32 10° N 22:39:56 79° W 22:41:40 51° S
NOSS 3-4 (A) 4.3 22:33:24 10° NW 22:40:09 51° WSW 22:42:32 39° SSW
Cosmos 44 3.4 22:35:00 10° NNW 22:40:24 76° NE 22:41:01 66° ESE
Ariane Rocket 4.4 22:39:06 24° SW 22:40:36 28° W 22:44:56 10° NW
NOSS 3-4 (C) 4.3 22:34:01 10° NW 22:40:48 51° WSW 22:43:10 40° SSW
Cosmos 2237 Rocket 4.0 22:40:16 10° N 22:44:40 22° NE 22:47:09 17° E
USA 234 3.9 22:44:44 10° ENE 22:49:36 35° ESE 22:49:36 35° ESE
Cosmos 1470 4.3 22:47:37 10° N 22:49:19 25° NNE 22:49:19 25° NNE
ARIANE 5 R/B 3.5 22:52:41 39° ENE 22:52:41 39° ENE 22:56:39 10° N
ALOS 2 3.7 22:54:46 33° ENE 22:54:46 33° ENE 22:58:32 10° N
Cosmos 2227 Rocket 4.4 22:55:50 12° E 22:55:50 12° E 22:56:59 10° ENE
SL-16 R/B 4.3 22:53:50 10° WNW 22:56:48 15° W 22:58:34 13° WSW
Helios 1B rocket 3.4 22:58:18 38° N 22:58:18 38° N 23:00:35 10° NNW
COSMOS 2428 2.9 22:53:04 10° NNW 22:58:43 59° ENE 22:59:34 53° E
ISS -1.7 22:59:10 10° NW 23:01:10 28° NNW 23:01:10 28° NNW
Cosmos 1898 Rocket 3.5 22:59:11 10° NNW 23:04:22 69° ENE 23:04:33 68° E
CZ-2C R/B 4.4 23:04:34 10° NE 23:09:26 30° E 23:09:26 30° E
Meteor 1-11 Rocket 4.2 23:04:15 10° N 23:09:41 46° ENE 23:10:10 45° E
Meteor 1-10 Rocket 4.5 23:11:29 55° ESE 23:11:46 56° E 23:17:33 10° NNE
Cosmos 1536 4.2 23:09:05 10° NNW 23:11:30 32° NW 23:11:30 32° NW
Cosmos-2242 4.5 23:14:02 28° W 23:14:13 28° WNW 23:17:47 10° NNW
Meteor 1-27 Rocket 4.2 23:25:50 47° E 23:25:53 47° E 23:31:22 10° NNE
Cosmos 841 Rocket 3.5 23:27:23 70° W 23:27:35 71° WNW 23:32:50 10° NNE
Cosmos 2297 Rocket 2.3 23:27:59 59° E 23:27:59 59° E 23:33:11 10° NNE
NOSS 0 Rocket 3.8 23:23:49 10° NNW 23:30:01 79° ENE 23:30:48 67° SE
Cosmos 2142 Rocket 4.4 23:30:57 67° SSW 23:31:51 83° W 23:38:06 10° N
Cosmos 2180 Rocket 4.4 23:32:27 68° SSW 23:33:18 84° W 23:39:40 10° N
Cosmos 1975 4.2 23:31:19 10° NNW 23:33:29 32° NNW 23:33:29 32° NNW
Spot 4 4.0 23:36:12 68° NW 23:36:12 68° NW 23:40:32 10° NNW
Cosmos 2360 Rocket 4.3 23:34:18 10° WNW 23:36:55 13° W 23:37:28 13° WSW
Meteor 1-14 Rocket 4.2 23:31:35 10° NNW 23:37:04 63° W 23:37:12 63° WSW
Cosmos 2221 3.4 23:39:35 44° NW 23:39:35 44° NW 23:42:52 10° N
Cosmos 1812 Rocket 4.1 23:39:58 57° NNW 23:39:58 57° NNW 23:43:36 10° N
Cosmos 2322 3.9 23:36:46 10° NNW 23:42:12 57° WSW 23:42:12 57° WSW
MetOp-A 4.3 23:42:38 53° ENE 23:42:38 53° ENE 23:47:03 10° N
ACS3 Solar Sail 3.3 23:41:10 10° NE 23:45:36 21° E 23:46:10 21° E
Cosmos 2219 Rocket 4.0 23:46:09 10° WNW 23:49:46 18° W 23:49:46 18° W
Meteor 2-20 Rocket 4.3 23:54:12 65° ESE 23:54:20 66° E 00:00:00 10° NNE
